Voltar ao catálogo

FENGYUN 1C DEB

AtivoPO
NORAD 31756·DEBRIS·🇨🇳 China

Lançado May 10, 1999 de Taiyuan Satellite Launch Center

Loading…

Próximas Passagens (próximas 24 horas)

TLE

EnvelhecendoSource: Space-Track

Época: Sep 10, 2026, 06:10 UTC

1 31756U 99025CFF 26253.25716317  .00004281  00000-0  10869-2 0  9998
2 31756  99.3656  61.6735 0039693  76.0332 284.5268 14.50902463646444

Acompanhe FENGYUN 1C DEB em tempo real com AllMySat

Download on the App Store